| time (UTC) | temp F | wind direction | speed MPH | gust MPH | rain 1hr in | rain 24hr in | rain mn in | humidity % | barometer mb |
| 20260905000100 | 86 | 5 | 2.0 | 2.0 | 0.00 | 0.00 | 0.00 | 69 | 1034.2 |
| 20260904235600 | 86 | 0 | 0.0 | 2.0 | 0.00 | 0.00 | 0.00 | 69 | 1034.3 |
| 20260904235059 | 87 | 0 | 2.0 | 2.0 | 0.00 | 0.00 | 0.00 | 69 | 1034.2 |
| 20260904234554 | 87 | 0 | 1.0 | 2.0 | 0.00 | 0.00 | 0.00 | 69 | 1033.9 |
| 20260904234050 | 88 | 0 | 0.0 | 1.0 | 0.00 | 0.00 | 0.00 | 71 | 1034.0 |
| 20260904233545 | 88 | 0 | 0.0 | 0.0 | 0.00 | 0.00 | 0.00 | 71 | 1034.2 |
| 20260904233041 | 88 | 0 | 0.0 | 0.0 | 0.00 | 0.00 | 0.00 | 70 | 1033.9 |
| 20260904232538 | 90 | 355 | 2.0 | 2.0 | 0.00 | 0.00 | 0.00 | 68 | 1033.6 |
| 20260904232034 | 91 | 352 | 0.0 | 1.0 | 0.00 | 0.00 | 0.00 | 63 | 1033.8 |
| 20260904231529 | 91 | 180 | 0.0 | 0.0 | 0.00 | 0.00 | 0.00 | 62 | 1033.8 |
| 20260904231024 | 92 | 180 | 0.0 | 0.0 | 0.00 | 0.00 | 0.00 | 61 | 1033.5 |
| 20260904230523 | 93 | 180 | 0.0 | 0.0 | 0.00 | 0.00 | 0.00 | 58 | 1033.5 |
| 20260904230019 | 95 | 180 | 0.0 | 0.0 | 0.00 | 0.00 | 0.00 | 53 | 1033.7 |
| 20260904225517 | 98 | 180 | 0.0 | 0.0 | 0.00 | 0.00 | 0.00 | 49 | 1033.4 |
| 20260904225016 | 97 | 180 | 0.0 | 0.0 | 0.00 | 0.00 | 0.00 | 50 | 1033.3 |
| 20260904224511 | 97 | 246 | 0.0 | 0.0 | 0.00 | 0.00 | 0.00 | 50 | 1033.4 |
| 20260904224006 | 98 | 246 | 0.0 | 0.0 | 0.00 | 0.00 | 0.00 | 49 | 1033.3 |
| 20260904223505 | 97 | 246 | 0.0 | 0.0 | 0.00 | 0.00 | 0.00 | 49 | 1033.2 |
| 20260904223001 | 98 | 246 | 0.0 | 0.0 | 0.00 | 0.00 | 0.00 | 47 | 1033.1 |
| 20260904222456 | 100 | 0 | 0.0 | 0.0 | 0.00 | 0.00 | 0.00 | 46 | 1033.0 |
| 20260904221950 | 99 | 0 | 0.0 | 0.0 | 0.00 | 0.00 | 0.00 | 47 | 1033.1 |
| 20260904221444 | 100 | 0 | 0.0 | 0.0 | 0.00 | 0.00 | 0.00 | 47 | 1033.3 |
| 20260904220940 | 99 | 270 | 0.0 | 0.0 | 0.00 | 0.00 | 0.00 | 47 | 1033.2 |
| 20260904220439 | 100 | 246 | 0.0 | 2.0 | 0.00 | 0.00 | 0.00 | 46 | 1033.4 |
| 20260904215935 | 99 | 254 | 0.0 | 1.0 | 0.00 | 0.00 | 0.00 | 48 | 1033.2 |
| 20260904215430 | 100 | 270 | 0.0 | 1.0 | 0.00 | 0.00 | 0.00 | 46 | 1033.3 |
| 20260904214926 | 98 | 6 | 1.0 | 2.0 | 0.00 | 0.00 | 0.00 | 47 | 1033.3 |
| 20260904214421 | 98 | 165 | 1.0 | 2.0 | 0.00 | 0.00 | 0.00 | 48 | 1033.4 |
| 20260904213921 | 98 | 163 | 2.0 | 2.0 | 0.00 | 0.00 | 0.00 | 48 | 1033.4 |
| 20260904213415 | 97 | 172 | 2.0 | 3.0 | 0.00 | 0.00 | 0.00 | 48 | 1033.4 |
| 20260904212911 | 99 | 166 | 2.0 | 2.0 | 0.00 | 0.00 | 0.00 | 46 | 1033.3 |
| 20260904212410 | 98 | 162 | 2.0 | 2.0 | 0.00 | 0.00 | 0.00 | 47 | 1033.3 |
| 20260904211906 | 97 | 165 | 3.0 | 3.0 | 0.00 | 0.00 | 0.00 | 47 | 1033.5 |
| 20260904211401 | 98 | 156 | 2.0 | 3.0 | 0.00 | 0.00 | 0.00 | 46 | 1033.3 |
| 20260904210856 | 99 | 164 | 2.0 | 3.0 | 0.00 | 0.00 | 0.00 | 46 | 1033.4 |
| 20260904210355 | 100 | 186 | 0.0 | 2.0 | 0.00 | 0.00 | 0.00 | 47 | 1033.5 |
| 20260904205852 | 99 | 163 | 3.0 | 3.0 | 0.00 | 0.00 | 0.00 | 48 | 1033.5 |
| 20260904205347 | 101 | 203 | 0.0 | 2.0 | 0.00 | 0.00 | 0.00 | 48 | 1033.6 |
| 20260904204844 | 101 | 200 | 1.0 | 2.0 | 0.00 | 0.00 | 0.00 | 46 | 1033.5 |
| 20260904204339 | 101 | 348 | 1.0 | 2.0 | 0.00 | 0.00 | 0.00 | 46 | 1033.7 |
| 20260904203836 | 101 | 180 | 2.0 | 2.0 | 0.00 | 0.00 | 0.00 | 45 | 1033.8 |
| 20260904203332 | 101 | 176 | 2.0 | 2.0 | 0.00 | 0.00 | 0.00 | 45 | 1033.5 |
| 20260904202827 | 101 | 240 | 0.0 | 2.0 | 0.00 | 0.00 | 0.00 | 45 | 1033.6 |
| 20260904202323 | 98 | 187 | 1.0 | 2.0 | 0.00 | 0.00 | 0.00 | 46 | 1033.7 |
| 20260904201819 | 98 | 0 | 0.0 | 4.0 | 0.00 | 0.00 | 0.00 | 46 | 1033.7 |
| 20260904201319 | 101 | 7 | 0.0 | 3.0 | 0.00 | 0.00 | 0.00 | 45 | 1033.9 |
| 20260904200814 | 99 | 352 | 0.0 | 1.0 | 0.00 | 0.00 | 0.00 | 46 | 1034.2 |
| 20260904200313 | 99 | 157 | 0.0 | 2.0 | 0.00 | 0.00 | 0.00 | 46 | 1034.2 |
| 20260904195808 | 98 | 342 | 0.0 | 2.0 | 0.00 | 0.00 | 0.00 | 45 | 1034.4 |
| 20260904195306 | 99 | 0 | 0.0 | 2.0 | 0.00 | 0.00 | 0.00 | 47 | 1034.4 |
| 20260904194801 | 98 | 0 | 3.0 | 3.0 | 0.00 | 0.00 | 0.00 | 48 | 1034.5 |
| 20260904194300 | 99 | 345 | 1.0 | 2.0 | 0.00 | 0.00 | 0.00 | 48 | 1034.7 |
| 20260904193755 | 97 | 339 | 2.0 | 3.0 | 0.00 | 0.00 | 0.00 | 50 | 1034.9 |
| 20260904193251 | 98 | 0 | 3.0 | 4.0 | 0.00 | 0.00 | 0.00 | 48 | 1035.0 |
| 20260904192746 | 100 | 90 | 0.0 | 3.0 | 0.00 | 0.00 | 0.00 | 47 | 1035.0 |
| 20260904192241 | 99 | 53 | 3.0 | 4.0 | 0.00 | 0.00 | 0.00 | 49 | 1035.3 |
| 20260904191738 | 96 | 23 | 0.0 | 2.0 | 0.00 | 0.00 | 0.00 | 53 | 1035.1 |
| 20260904191234 | 96 | 166 | 3.0 | 3.0 | 0.00 | 0.00 | 0.00 | 55 | 1035.0 |
| 20260904190730 | 98 | 180 | 0.0 | 2.0 | 0.00 | 0.00 | 0.00 | 55 | 1035.3 |
| 20260904190226 | 95 | 180 | 0.0 | 3.0 | 0.00 | 0.00 | 0.00 | 58 | 1035.2 |
| 20260904185722 | 95 | 166 | 2.0 | 3.0 | 0.00 | 0.00 | 0.00 | 58 | 1035.3 |
| 20260904185216 | 92 | 180 | 2.0 | 3.0 | 0.00 | 0.00 | 0.00 | 60 | 1035.6 |
| 20260904184715 | 91 | 163 | 3.0 | 3.0 | 0.00 | 0.00 | 0.00 | 62 | 1035.5 |
| 20260904184211 | 93 | 188 | 1.0 | 2.0 | 0.00 | 0.00 | 0.00 | 59 | 1035.5 |
| 20260904183706 | 93 | 194 | 0.0 | 2.0 | 0.00 | 0.00 | 0.00 | 59 | 1035.7 |
| 20260904183201 | 93 | 190 | 2.0 | 2.0 | 0.00 | 0.00 | 0.00 | 62 | 1035.9 |
| 20260904182657 | 93 | 180 | 2.0 | 3.0 | 0.00 | 0.00 | 0.00 | 62 | 1036.0 |
| 20260904182151 | 93 | 165 | 0.0 | 3.0 | 0.00 | 0.00 | 0.00 | 59 | 1035.8 |
| 20260904181648 | 93 | 99 | 0.0 | 3.0 | 0.00 | 0.00 | 0.00 | 60 | 1036.0 |
| 20260904181147 | 93 | 152 | 2.0 | 2.0 | 0.00 | 0.00 | 0.00 | 59 | 1036.0 |
| 20260904180642 | 93 | 180 | 0.0 | 3.0 | 0.00 | 0.00 | 0.00 | 60 | 1035.7 |
| 20260904180137 | 93 | 162 | 2.0 | 2.0 | 0.00 | 0.00 | 0.00 | 59 | 1035.8 |
| 20260904175636 | 92 | 188 | 0.0 | 3.0 | 0.00 | 0.00 | 0.00 | 59 | 1035.9 |
| 20260904175135 | 92 | 156 | 3.0 | 3.0 | 0.00 | 0.00 | 0.00 | 60 | 1036.1 |
| 20260904174630 | 92 | 180 | 0.0 | 2.0 | 0.00 | 0.00 | 0.00 | 61 | 1036.4 |
| 20260904174126 | 92 | 173 | 1.0 | 3.0 | 0.00 | 0.00 | 0.00 | 62 | 1036.4 |
| 20260904173621 | 91 | 150 | 2.0 | 2.0 | 0.00 | 0.00 | 0.00 | 62 | 1036.4 |
| 20260904173117 | 90 | 195 | 0.0 | 0.0 | 0.00 | 0.00 | 0.00 | 65 | 1036.7 |
| 20260904172613 | 90 | 195 | 0.0 | 2.0 | 0.00 | 0.00 | 0.00 | 65 | 1036.6 |
| 20260904172112 | 91 | 154 | 2.0 | 2.0 | 0.00 | 0.00 | 0.00 | 65 | 1036.8 |
| 20260904171607 | 90 | 180 | 2.0 | 2.0 | 0.00 | 0.00 | 0.00 | 64 | 1036.8 |
| 20260904171103 | 91 | 198 | 2.0 | 2.0 | 0.00 | 0.00 | 0.00 | 65 | 1036.9 |
| 20260904170558 | 91 | 114 | 0.0 | 1.0 | 0.00 | 0.00 | 0.00 | 65 | 1037.0 |
| 20260904170055 | 91 | 164 | 0.0 | 0.0 | 0.00 | 0.00 | 0.00 | 65 | 1036.9 |
| 20260904165553 | 89 | 188 | 0.0 | 1.0 | 0.00 | 0.00 | 0.00 | 66 | 1036.9 |
| 20260904165052 | 89 | 99 | 0.0 | 0.0 | 0.00 | 0.00 | 0.00 | 67 | 1036.9 |
| 20260904164547 | 89 | 180 | 0.0 | 1.0 | 0.00 | 0.00 | 0.00 | 67 | 1037.1 |
| 20260904164044 | 88 | 90 | 1.0 | 3.0 | 0.00 | 0.00 | 0.00 | 67 | 1037.1 |
| 20260904163543 | 88 | 175 | 2.0 | 2.0 | 0.00 | 0.00 | 0.00 | 68 | 1037.1 |
| 20260904163039 | 88 | 187 | 0.0 | 2.0 | 0.00 | 0.00 | 0.00 | 70 | 1037.2 |
| 20260904162538 | 87 | 148 | 0.0 | 2.0 | 0.00 | 0.00 | 0.00 | 70 | 1037.2 |
| 20260904162034 | 87 | 175 | 0.0 | 2.0 | 0.00 | 0.00 | 0.00 | 69 | 1037.3 |
| 20260904161529 | 88 | 45 | 0.0 | 0.0 | 0.00 | 0.00 | 0.00 | 68 | 1037.3 |
| 20260904161024 | 88 | 45 | 0.0 | 2.0 | 0.00 | 0.00 | 0.00 | 68 | 1037.3 |
| 20260904160519 | 87 | 23 | 1.0 | 3.0 | 0.00 | 0.00 | 0.00 | 70 | 1037.3 |
| 20260904160015 | 87 | 15 | 2.0 | 4.0 | 0.00 | 0.00 | 0.00 | 69 | 1037.4 |
| 20260904155509 | 87 | 14 | 1.0 | 2.0 | 0.00 | 0.00 | 0.00 | 71 | 1037.2 |
| 20260904155008 | 86 | 7 | 0.0 | 0.0 | 0.00 | 0.00 | 0.00 | 73 | 1037.3 |
| 20260904154502 | 86 | 7 | 0.0 | 0.0 | 0.00 | 0.00 | 0.00 | 72 | 1037.5 |
| 20260904153957 | 85 | 7 | 0.0 | 0.0 | 0.00 | 0.00 | 0.00 | 75 | 1037.1 |
| 20260904153452 | 85 | 7 | 0.0 | 0.0 | 0.00 | 0.00 | 0.00 | 75 | 1037.2 |
| 20260904152949 | 84 | 30 | 2.0 | 2.0 | 0.00 | 0.00 | 0.00 | 75 | 1037.5 |
| 20260904152444 | 84 | 157 | 0.0 | 2.0 | 0.00 | 0.00 | 0.00 | 76 | 1037.4 |
| 20260904151943 | 83 | 166 | 0.0 | 0.0 | 0.00 | 0.00 | 0.00 | 77 | 1037.3 |
| 20260904151439 | 83 | 173 | 0.0 | 1.0 | 0.00 | 0.00 | 0.00 | 77 | 1037.5 |
| 20260904150933 | 83 | 172 | 0.0 | 0.0 | 0.00 | 0.00 | 0.00 | 76 | 1037.3 |
| 20260904150428 | 83 | 180 | 0.0 | 1.0 | 0.00 | 0.00 | 0.00 | 77 | 1037.4 |
| 20260904145926 | 82 | 187 | 0.0 | 1.0 | 0.00 | 0.00 | 0.00 | 79 | 1037.4 |
| 20260904145423 | 82 | 195 | 0.0 | 1.0 | 0.00 | 0.00 | 0.00 | 80 | 1037.5 |
| 20260904144918 | 82 | 0 | 0.0 | 2.0 | 0.00 | 0.00 | 0.00 | 79 | 1037.3 |
| 20260904144414 | 81 | 173 | 0.0 | 1.0 | 0.00 | 0.00 | 0.00 | 82 | 1037.4 |
| 20260904143909 | 81 | 188 | 0.0 | 2.0 | 0.00 | 0.00 | 0.00 | 82 | 1037.1 |
| 20260904143406 | 81 | 166 | 0.0 | 0.0 | 0.00 | 0.00 | 0.00 | 82 | 1037.3 |
| 20260904142902 | 80 | 145 | 1.0 | 1.0 | 0.00 | 0.00 | 0.00 | 82 | 1037.3 |
| 20260904142357 | 80 | 165 | 0.0 | 0.0 | 0.00 | 0.00 | 0.00 | 82 | 1037.3 |
| 20260904141857 | 80 | 154 | 1.0 | 2.0 | 0.00 | 0.00 | 0.00 | 83 | 1037.3 |
| 20260904141352 | 80 | 172 | 0.0 | 0.0 | 0.00 | 0.00 | 0.00 | 83 | 1037.3 |
| 20260904140849 | 79 | 165 | 0.0 | 1.0 | 0.00 | 0.00 | 0.00 | 83 | 1037.3 |
| 20260904140343 | 79 | 174 | 0.0 | 1.0 | 0.00 | 0.00 | 0.00 | 84 | 1037.2 |
| 20260904135843 | 79 | 157 | 0.0 | 1.0 | 0.00 | 0.00 | 0.00 | 84 | 1037.3 |
| 20260904135337 | 79 | 166 | 0.0 | 1.0 | 0.00 | 0.00 | 0.00 | 84 | 1037.2 |
| 20260904134834 | 79 | 166 | 0.0 | 0.0 | 0.00 | 0.00 | 0.00 | 84 | 1037.2 |
| 20260904134333 | 78 | 166 | 0.0 | 0.0 | 0.00 | 0.00 | 0.00 | 85 | 1037.1 |
| 20260904133828 | 78 | 166 | 0.0 | 1.0 | 0.00 | 0.00 | 0.00 | 86 | 1037.4 |
| 20260904133324 | 78 | 8 | 0.0 | 0.0 | 0.00 | 0.00 | 0.00 | 86 | 1037.2 |
| 20260904132823 | 78 | 8 | 0.0 | 0.0 | 0.00 | 0.00 | 0.00 | 86 | 1037.4 |
| 20260904132319 | 78 | 8 | 0.0 | 3.0 | 0.00 | 0.00 | 0.00 | 87 | 1037.0 |
| 20260904131818 | 78 | 6 | 1.0 | 3.0 | 0.00 | 0.00 | 0.00 | 87 | 1037.1 |
| 20260904131313 | 77 | 14 | 1.0 | 3.0 | 0.00 | 0.00 | 0.00 | 88 | 1036.9 |
| 20260904130808 | 76 | 355 | 2.0 | 2.0 | 0.00 | 0.00 | 0.00 | 89 | 1037.0 |
| 20260904130307 | 76 | 0 | 2.0 | 3.0 | 0.00 | 0.00 | 0.00 | 89 | 1037.0 |
| 20260904125803 | 76 | 12 | 1.0 | 2.0 | 0.00 | 0.00 | 0.00 | 90 | 1037.0 |
| 20260904125259 | 76 | 0 | 0.0 | 0.0 | 0.00 | 0.00 | 0.00 | 91 | 1037.0 |
| 20260904124753 | 75 | 7 | 0.0 | 1.0 | 0.00 | 0.00 | 0.00 | 92 | 1037.0 |
| 20260904124249 | 74 | 352 | 0.0 | 2.0 | 0.00 | 0.00 | 0.00 | 94 | 1037.0 |
| 20260904123749 | 74 | 20 | 0.0 | 1.0 | 0.00 | 0.00 | 0.00 | 94 | 1036.9 |
| 20260904123245 | 74 | 148 | 0.0 | 2.0 | 0.00 | 0.00 | 0.00 | 93 | 1037.0 |
| 20260904122740 | 74 | 172 | 0.0 | 0.0 | 0.00 | 0.00 | 0.00 | 93 | 1036.9 |
| 20260904122239 | 74 | 172 | 0.0 | 0.0 | 0.00 | 0.00 | 0.00 | 93 | 1036.6 |
| 20260904121735 | 73 | 172 | 0.0 | 0.0 | 0.00 | 0.00 | 0.00 | 94 | 1036.8 |
| 20260904121231 | 73 | 172 | 0.0 | 0.0 | 0.00 | 0.00 | 0.00 | 94 | 1036.8 |
| 20260904120727 | 73 | 354 | 0.0 | 0.0 | 0.00 | 0.00 | 0.00 | 94 | 1036.7 |
| 20260904120223 | 73 | 354 | 0.0 | 0.0 | 0.00 | 0.00 | 0.00 | 94 | 1036.5 |
| 20260904115718 | 73 | 351 | 2.0 | 2.0 | 0.00 | 0.00 | 0.00 | 94 | 1036.6 |
| 20260904115217 | 73 | 352 | 0.0 | 1.0 | 0.00 | 0.00 | 0.00 | 95 | 1036.3 |
| 20260904114713 | 72 | 337 | 0.0 | 0.0 | 0.00 | 0.00 | 0.00 | 95 | 1036.6 |
| 20260904114207 | 72 | 334 | 1.0 | 2.0 | 0.00 | 0.00 | 0.00 | 96 | 1036.3 |
| 20260904113701 | 72 | 0 | 1.0 | 2.0 | 0.00 | 0.00 | 0.00 | 95 | 1036.3 |
| 20260904113201 | 72 | 337 | 1.0 | 2.0 | 0.00 | 0.00 | 0.00 | 95 | 1036.3 |
| 20260904112656 | 72 | 345 | 2.0 | 2.0 | 0.00 | 0.00 | 0.00 | 95 | 1036.3 |
| 20260904112152 | 72 | 194 | 0.0 | 0.0 | 0.00 | 0.00 | 0.00 | 95 | 1036.3 |
| 20260904111648 | 73 | 194 | 0.0 | 1.0 | 0.00 | 0.00 | 0.00 | 95 | 1036.0 |
| 20260904111143 | 73 | 195 | 0.0 | 2.0 | 0.00 | 0.00 | 0.00 | 94 | 1036.0 |
| 20260904110638 | 73 | 206 | 0.0 | 1.0 | 0.00 | 0.00 | 0.00 | 93 | 1035.6 |
| 20260904110137 | 73 | 168 | 0.0 | 1.0 | 0.00 | 0.00 | 0.00 | 92 | 1035.8 |
| 20260904105632 | 74 | 345 | 0.0 | 0.0 | 0.00 | 0.00 | 0.00 | 91 | 1035.7 |
| 20260904105127 | 74 | 345 | 0.0 | 0.0 | 0.00 | 0.00 | 0.00 | 91 | 1035.8 |
| 20260904104623 | 74 | 345 | 0.0 | 0.0 | 0.00 | 0.00 | 0.00 | 91 | 1035.8 |
| 20260904104118 | 74 | 0 | 0.0 | 0.0 | 0.00 | 0.00 | 0.00 | 92 | 1035.7 |
| 20260904103614 | 73 | 0 | 0.0 | 1.0 | 0.00 | 0.00 | 0.00 | 92 | 1035.5 |
| 20260904103110 | 73 | 354 | 0.0 | 1.0 | 0.00 | 0.00 | 0.00 | 93 | 1035.4 |
| 20260904102606 | 73 | 337 | 0.0 | 0.0 | 0.00 | 0.00 | 0.00 | 93 | 1035.5 |
| 20260904102101 | 73 | 337 | 0.0 | 0.0 | 0.00 | 0.00 | 0.00 | 93 | 1035.3 |
| 20260904101557 | 74 | 331 | 1.0 | 3.0 | 0.00 | 0.00 | 0.00 | 92 | 1035.3 |
| 20260904101052 | 75 | 180 | 0.0 | 0.0 | 0.00 | 0.00 | 0.00 | 90 | 1035.2 |
| 20260904100549 | 74 | 180 | 0.0 | 1.0 | 0.00 | 0.00 | 0.00 | 90 | 1035.4 |
| 20260904100043 | 74 | 8 | 0.0 | 0.0 | 0.00 | 0.00 | 0.00 | 92 | 1035.3 |
| 20260904095538 | 74 | 352 | 0.0 | 2.0 | 0.00 | 0.00 | 0.00 | 92 | 1035.4 |
| 20260904095033 | 74 | 7 | 1.0 | 2.0 | 0.00 | 0.00 | 0.00 | 91 | 1035.1 |
| 20260904094528 | 74 | 0 | 0.0 | 0.0 | 0.00 | 0.00 | 0.00 | 91 | 1035.4 |
| 20260904094023 | 74 | 0 | 0.0 | 1.0 | 0.00 | 0.00 | 0.00 | 92 | 1035.4 |
| 20260904093520 | 74 | 180 | 0.0 | 0.0 | 0.00 | 0.00 | 0.00 | 92 | 1035.1 |
| 20260904093015 | 74 | 0 | 0.0 | 0.0 | 0.00 | 0.00 | 0.00 | 92 | 1035.2 |
| 20260904092510 | 74 | 354 | 0.0 | 2.0 | 0.00 | 0.00 | 0.00 | 91 | 1035.2 |
| 20260904092007 | 75 | 352 | 0.0 | 0.0 | 0.00 | 0.00 | 0.00 | 89 | 1035.0 |
| 20260904091503 | 74 | 0 | 0.0 | 0.0 | 0.00 | 0.00 | 0.00 | 91 | 1035.3 |
| 20260904091002 | 74 | 0 | 1.0 | 1.0 | 0.00 | 0.00 | 0.00 | 92 | 1035.1 |
| 20260904090457 | 74 | 0 | 0.0 | 1.0 | 0.00 | 0.00 | 0.00 | 92 | 1034.9 |
| 20260904085952 | 74 | 331 | 1.0 | 3.0 | 0.00 | 0.00 | 0.00 | 92 | 1035.2 |
| 20260904085448 | 74 | 352 | 0.0 | 2.0 | 0.00 | 0.00 | 0.00 | 90 | 1034.8 |
| 20260904084947 | 74 | 0 | 0.0 | 0.0 | 0.00 | 0.00 | 0.00 | 91 | 1035.1 |
| 20260904084443 | 74 | 0 | 0.0 | 1.0 | 0.00 | 0.00 | 0.00 | 92 | 1034.9 |
| 20260904083944 | 74 | 9 | 2.0 | 3.0 | 0.00 | 0.00 | 0.00 | 92 | 1035.0 |
| 20260904083441 | 75 | 0 | 0.0 | 1.0 | 0.00 | 0.00 | 0.00 | 89 | 1035.1 |
| 20260904082937 | 75 | 337 | 1.0 | 3.0 | 0.00 | 0.00 | 0.00 | 89 | 1035.0 |
| 20260904082437 | 75 | 334 | 1.0 | 2.0 | 0.00 | 0.00 | 0.00 | 90 | 1035.1 |
| 20260904081931 | 75 | 344 | 2.0 | 2.0 | 0.00 | 0.00 | 0.00 | 88 | 1035.1 |
| 20260904081427 | 76 | 353 | 0.0 | 0.0 | 0.00 | 0.00 | 0.00 | 87 | 1035.0 |
| 20260904080923 | 76 | 353 | 0.0 | 2.0 | 0.00 | 0.00 | 0.00 | 86 | 1035.0 |
| 20260904080418 | 77 | 355 | 0.0 | 2.0 | 0.00 | 0.00 | 0.00 | 84 | 1035.1 |
| 20260904075914 | 76 | 345 | 0.0 | 2.0 | 0.00 | 0.00 | 0.00 | 86 | 1034.9 |
| 20260904075410 | 76 | 337 | 0.0 | 2.0 | 0.00 | 0.00 | 0.00 | 85 | 1035.0 |
| 20260904074908 | 76 | 343 | 3.0 | 3.0 | 0.00 | 0.00 | 0.00 | 89 | 1034.9 |
| 20260904074403 | 77 | 355 | 1.0 | 3.0 | 0.00 | 0.00 | 0.00 | 85 | 1035.0 |
| 20260904073859 | 78 | 0 | 0.0 | 0.0 | 0.00 | 0.00 | 0.00 | 80 | 1035.2 |
| 20260904073354 | 78 | 0 | 0.0 | 1.0 | 0.00 | 0.00 | 0.00 | 82 | 1035.2 |
| 20260904072844 | 77 | 0 | 1.0 | 2.0 | 0.00 | 0.00 | 0.00 | 84 | 1035.4 |
| 20260904072339 | 76 | 342 | 1.0 | 2.0 | 0.00 | 0.00 | 0.00 | 86 | 1035.1 |
| 20260904071834 | 77 | 0 | 3.0 | 3.0 | 0.00 | 0.00 | 0.00 | 84 | 1035.0 |
| 20260904071330 | 77 | 352 | 0.0 | 2.0 | 0.00 | 0.00 | 0.00 | 85 | 1035.1 |
| 20260904070824 | 78 | 357 | 3.0 | 3.0 | 0.00 | 0.00 | 0.00 | 83 | 1035.3 |
| 20260904070323 | 78 | 353 | 0.0 | 1.0 | 0.00 | 0.00 | 0.00 | 81 | 1035.4 |
| 20260904065818 | 78 | 0 | 0.0 | 0.0 | 0.00 | 0.00 | 0.00 | 82 | 1035.0 |
| 20260904065315 | 78 | 16 | 2.0 | 2.0 | 0.00 | 0.00 | 0.00 | 84 | 1035.2 |
| 20260904064809 | 78 | 0 | 0.0 | 0.0 | 0.00 | 0.00 | 0.00 | 80 | 1035.2 |
| 20260904064304 | 78 | 0 | 0.0 | 0.0 | 0.00 | 0.00 | 0.00 | 83 | 1035.2 |
| 20260904063801 | 77 | 346 | 1.0 | 1.0 | 0.00 | 0.00 | 0.00 | 84 | 1035.1 |
| 20260904063256 | 78 | 353 | 0.0 | 0.0 | 0.00 | 0.00 | 0.00 | 81 | 1035.0 |
| 20260904062752 | 78 | 106 | 0.0 | 0.0 | 0.00 | 0.00 | 0.00 | 81 | 1035.5 |
| 20260904062248 | 79 | 106 | 0.0 | 2.0 | 0.00 | 0.00 | 0.00 | 83 | 1035.4 |
| 20260904061743 | 79 | 355 | 0.0 | 0.0 | 0.00 | 0.00 | 0.00 | 79 | 1035.1 |
| 20260904061239 | 79 | 345 | 0.0 | 1.0 | 0.00 | 0.00 | 0.00 | 80 | 1035.6 |
| 20260904060736 | 78 | 0 | 1.0 | 1.0 | 0.00 | 0.00 | 0.00 | 81 | 1035.6 |
| 20260904060231 | 78 | 353 | 1.0 | 1.0 | 0.00 | 0.00 | 0.00 | 83 | 1035.5 |
| 20260904055726 | 78 | 349 | 2.0 | 2.0 | 0.00 | 0.00 | 0.00 | 85 | 1035.6 |
| 20260904055221 | 78 | 348 | 0.0 | 2.0 | 0.00 | 0.00 | 0.00 | 83 | 1035.7 |
| 20260904054717 | 77 | 348 | 0.0 | 2.0 | 0.00 | 0.00 | 0.00 | 85 | 1035.4 |
| 20260904054213 | 77 | 350 | 2.0 | 2.0 | 0.00 | 0.00 | 0.00 | 87 | 1035.7 |
| 20260904053708 | 77 | 357 | 3.0 | 3.0 | 0.00 | 0.00 | 0.00 | 87 | 1035.7 |
| 20260904053207 | 77 | 353 | 2.0 | 3.0 | 0.00 | 0.00 | 0.00 | 87 | 1035.8 |
| 20260904052704 | 78 | 7 | 0.0 | 2.0 | 0.00 | 0.00 | 0.00 | 86 | 1035.9 |
| 20260904052200 | 78 | 0 | 0.0 | 3.0 | 0.00 | 0.00 | 0.00 | 85 | 1036.0 |
| 20260904051656 | 79 | 0 | 0.0 | 0.0 | 0.00 | 0.00 | 0.00 | 82 | 1035.9 |
| 20260904051150 | 79 | 352 | 0.0 | 0.0 | 0.00 | 0.00 | 0.00 | 82 | 1036.1 |
| 20260904050646 | 78 | 0 | 0.0 | 1.0 | 0.00 | 0.00 | 0.00 | 83 | 1036.1 |
| 20260904050142 | 80 | 357 | 3.0 | 3.0 | 0.00 | 0.00 | 0.00 | 82 | 1036.5 |
| 20260904045642 | 80 | 0 | 0.0 | 0.0 | 0.00 | 0.00 | 0.00 | 77 | 1036.3 |
| 20260904045142 | 80 | 0 | 0.0 | 0.0 | 0.00 | 0.00 | 0.00 | 78 | 1036.3 |
| 20260904044637 | 80 | 0 | 1.0 | 1.0 | 0.00 | 0.00 | 0.00 | 78 | 1036.5 |
| 20260904044134 | 80 | 0 | 0.0 | 0.0 | 0.00 | 0.00 | 0.00 | 78 | 1036.3 |
| 20260904043630 | 79 | 0 | 0.0 | 0.0 | 0.00 | 0.00 | 0.00 | 80 | 1036.1 |
| 20260904043125 | 79 | 0 | 0.0 | 0.0 | 0.00 | 0.00 | 0.00 | 81 | 1036.1 |
| 20260904042621 | 79 | 0 | 0.0 | 1.0 | 0.00 | 0.00 | 0.00 | 81 | 1036.1 |
| 20260904042117 | 80 | 74 | 0.0 | 0.0 | 0.00 | 0.00 | 0.00 | 80 | 1036.0 |
| 20260904041612 | 80 | 74 | 0.0 | 1.0 | 0.00 | 0.00 | 0.00 | 81 | 1036.1 |
| 20260904041108 | 80 | 120 | 0.0 | 2.0 | 0.00 | 0.00 | 0.00 | 80 | 1036.0 |
| 20260904040603 | 80 | 157 | 0.0 | 0.0 | 0.00 | 0.00 | 0.00 | 79 | 1036.0 |
| 20260904040100 | 80 | 166 | 0.0 | 0.0 | 0.00 | 0.00 | 0.00 | 79 | 1036.0 |
| 20260904035555 | 80 | 151 | 1.0 | 2.0 | 0.00 | 0.00 | 0.00 | 79 | 1036.5 |
| 20260904035054 | 82 | 172 | 0.0 | 1.0 | 0.00 | 0.00 | 0.00 | 73 | 1036.0 |
| 20260904034549 | 82 | 188 | 0.0 | 0.0 | 0.00 | 0.00 | 0.00 | 73 | 1036.3 |
| 20260904034045 | 82 | 188 | 0.0 | 0.0 | 0.00 | 0.00 | 0.00 | 74 | 1036.1 |
| 20260904033541 | 82 | 23 | 0.0 | 0.0 | 0.00 | 0.00 | 0.00 | 74 | 1036.4 |
| 20260904033038 | 82 | 346 | 0.0 | 0.0 | 0.00 | 0.00 | 0.00 | 73 | 1036.3 |
| 20260904032533 | 83 | 353 | 0.0 | 3.0 | 0.00 | 0.00 | 0.00 | 72 | 1036.1 |
| 20260904032032 | 83 | 345 | 2.0 | 4.0 | 0.00 | 0.00 | 0.00 | 71 | 1036.5 |
| 20260904031526 | 83 | 9 | 2.0 | 3.0 | 0.00 | 0.00 | 0.00 | 71 | 1036.5 |
| 20260904031023 | 83 | 0 | 0.0 | 2.0 | 0.00 | 0.00 | 0.00 | 71 | 1036.4 |
| 20260904030518 | 83 | 355 | 2.0 | 3.0 | 0.00 | 0.00 | 0.00 | 71 | 1036.5 |
| 20260904030014 | 83 | 4 | 2.0 | 3.0 | 0.00 | 0.00 | 0.00 | 72 | 1036.6 |
| 20260904025509 | 84 | 348 | 1.0 | 2.0 | 0.00 | 0.00 | 0.00 | 70 | 1036.4 |
| 20260904025004 | 83 | 354 | 0.0 | 1.0 | 0.00 | 0.00 | 0.00 | 71 | 1036.4 |
| 20260904024459 | 83 | 345 | 1.0 | 2.0 | 0.00 | 0.00 | 0.00 | 72 | 1036.1 |
| 20260904023955 | 83 | 352 | 2.0 | 2.0 | 0.00 | 0.00 | 0.00 | 73 | 1036.4 |
| 20260904023451 | 83 | 353 | 1.0 | 2.0 | 0.00 | 0.00 | 0.00 | 73 | 1036.5 |
| 20260904022950 | 83 | 345 | 1.0 | 2.0 | 0.00 | 0.00 | 0.00 | 74 | 1036.4 |
| 20260904022446 | 83 | 346 | 1.0 | 2.0 | 0.00 | 0.00 | 0.00 | 74 | 1036.1 |
| 20260904021943 | 83 | 352 | 1.0 | 2.0 | 0.00 | 0.00 | 0.00 | 74 | 1036.5 |
| 20260904021438 | 83 | 348 | 1.0 | 2.0 | 0.00 | 0.00 | 0.00 | 74 | 1036.0 |
| 20260904020933 | 83 | 342 | 2.0 | 2.0 | 0.00 | 0.00 | 0.00 | 75 | 1036.3 |
| 20260904020428 | 83 | 342 | 2.0 | 2.0 | 0.00 | 0.00 | 0.00 | 75 | 1036.1 |
| 20260904015926 | 83 | 342 | 2.0 | 2.0 | 0.00 | 0.00 | 0.00 | 75 | 1036.1 |
| 20260904015422 | 84 | 346 | 0.0 | 2.0 | 0.00 | 0.00 | 0.00 | 73 | 1035.9 |
| 20260904014921 | 84 | 337 | 0.0 | 2.0 | 0.00 | 0.00 | 0.00 | 73 | 1036.0 |
| 20260904014416 | 84 | 346 | 2.0 | 3.0 | 0.00 | 0.00 | 0.00 | 74 | 1035.7 |
| 20260904013911 | 84 | 351 | 2.0 | 3.0 | 0.00 | 0.00 | 0.00 | 73 | 1035.8 |
| 20260904013408 | 84 | 344 | 2.0 | 3.0 | 0.00 | 0.00 | 0.00 | 74 | 1035.6 |
| 20260904012903 | 84 | 346 | 2.0 | 2.0 | 0.00 | 0.00 | 0.00 | 73 | 1035.8 |
| 20260904012358 | 84 | 354 | 1.0 | 2.0 | 0.00 | 0.00 | 0.00 | 72 | 1035.7 |
| 20260904011857 | 84 | 342 | 2.0 | 2.0 | 0.00 | 0.00 | 0.00 | 71 | 1035.3 |
| 20260904011352 | 84 | 337 | 1.0 | 2.0 | 0.00 | 0.00 | 0.00 | 72 | 1035.5 |
| 20260904010846 | 85 | 353 | 1.0 | 2.0 | 0.00 | 0.00 | 0.00 | 70 | 1035.4 |
| 20260904010343 | 85 | 352 | 0.0 | 2.0 | 0.00 | 0.00 | 0.00 | 70 | 1035.5 |
| 20260904005838 | 85 | 345 | 1.0 | 2.0 | 0.00 | 0.00 | 0.00 | 69 | 1035.2 |
| 20260904005334 | 85 | 353 | 0.0 | 2.0 | 0.00 | 0.00 | 0.00 | 68 | 1035.1 |
| 20260904004829 | 85 | 350 | 2.0 | 2.0 | 0.00 | 0.00 | 0.00 | 68 | 1035.2 |
| 20260904004326 | 86 | 339 | 2.0 | 2.0 | 0.00 | 0.00 | 0.00 | 67 | 1035.3 |
| 20260904003821 | 86 | 340 | 1.0 | 2.0 | 0.00 | 0.00 | 0.00 | 67 | 1035.1 |
| 20260904003317 | 86 | 342 | 0.0 | 2.0 | 0.00 | 0.00 | 0.00 | 67 | 1035.1 |
| 20260904002812 | 86 | 349 | 2.0 | 2.0 | 0.00 | 0.00 | 0.00 | 67 | 1035.2 |
| 20260904002308 | 86 | 352 | 1.0 | 2.0 | 0.00 | 0.00 | 0.00 | 67 | 1035.1 |
| 20260904001807 | 86 | 349 | 2.0 | 2.0 | 0.00 | 0.00 | 0.00 | 67 | 1035.0 |
| 20260904001301 | 86 | 340 | 0.0 | 1.0 | 0.00 | 0.00 | 0.00 | 67 | 1034.8 |
| 20260904000757 | 87 | 345 | 0.0 | 1.0 | 0.00 | 0.00 | 0.00 | 67 | 1034.8 |